Terminal Aerodrome Forecast
Issued by NWS

Home | Current Version | Previous Version | Text Only | Print | Product List | Glossary On
Versions: 1 2 3 4 5 6 7 8 9 10 11 12 13 14 15 16 17 18 19 20 21 22 23 24 25 26 27 28 29 30 31 32
000
FTAK31 PAFA 191735
TAFAMC
TAF
PAMC 191735Z 1918/2018 VRB03KT P6SM VCSH FEW020 BKN070 BKN200
     FM200400 VRB03KT 5SM -SHRA BR SCT025 BKN050
     FM201300 VRB03KT 2SM -RA BR SCT010 BKN025 OVC040=

USA.gov is the U.S. government's official web portal to all federal, state and local government web resources and services.